Time,TemperatureF,DewpointF,PressureIn,WindDirection,WindDirectionDegrees,WindSpeedMPH,WindSpeedGustMPH,Humidity,HourlyPrecipIn,Conditions,Clouds,dailyrainin,SoftwareType,DateUTC
2013-07-16 00:11:00,76.0,51.0,29.17,SSE,148,1.0,-999.0,41,0.00,,,0.00,,2013-07-16 07:11:00,
2013-07-16 00:22:00,76.0,51.0,29.17,SSE,148,1.0,-999.0,41,0.00,,,0.00,,2013-07-16 07:22:00,
2013-07-16 00:32:00,76.0,51.0,29.17,SSE,148,1.0,-999.0,41,0.00,,,0.00,,2013-07-16 07:32:00,
2013-07-16 00:43:00,76.0,51.0,29.17,SSE,148,1.0,-999.0,41,0.00,,,0.00,,2013-07-16 07:43:00,
2013-07-16 01:22:00,77.0,52.0,29.18,West,270,2.0,-999.0,42,-99.99,,,-99.99,,2013-07-16 08:22:00,
2013-07-16 01:32:00,77.0,52.0,29.18,West,270,2.0,-999.0,42,-99.99,,,-99.99,,2013-07-16 08:32:00,
2013-07-16 01:43:00,77.0,52.0,29.18,West,270,2.0,-999.0,42,-99.99,,,-99.99,,2013-07-16 08:43:00,
2013-07-16 02:12:00,77.0,46.0,29.19,ENE,58,7.0,-999.0,33,0.00,,,-99.99,,2013-07-16 09:12:00,
2013-07-16 02:22:00,77.0,46.0,29.19,ENE,58,7.0,-999.0,33,0.00,,,-99.99,,2013-07-16 09:22:00,
2013-07-16 02:32:00,77.0,46.0,29.19,ENE,58,7.0,-999.0,33,0.00,,,-99.99,,2013-07-16 09:32:00,
2013-07-16 02:42:00,77.0,46.0,29.19,ENE,58,7.0,-999.0,33,0.00,,,-99.99,,2013-07-16 09:42:00,
2013-07-16 03:11:00,72.0,56.0,29.20,ENE,58,1.0,-999.0,57,0.00,,,0.00,,2013-07-16 10:11:00,
2013-07-16 03:22:00,72.0,56.0,29.20,ENE,58,1.0,-999.0,57,0.00,,,0.00,,2013-07-16 10:22:00,
2013-07-16 03:31:00,72.0,56.0,29.20,ENE,58,1.0,-999.0,57,0.00,,,0.00,,2013-07-16 10:31:00,
2013-07-16 03:42:00,72.0,56.0,29.20,ENE,58,1.0,-999.0,57,0.00,,,0.00,,2013-07-16 10:42:00,
2013-07-16 04:22:00,68.0,46.0,29.21,SE,131,0.0,-999.0,44,0.00,,,0.00,,2013-07-16 11:22:00,
2013-07-16 04:32:00,68.0,46.0,29.21,SE,131,0.0,-999.0,44,0.00,,,0.00,,2013-07-16 11:32:00,
2013-07-16 04:42:00,68.0,46.0,29.21,SE,131,0.0,-999.0,44,0.00,,,0.00,,2013-07-16 11:42:00,
2013-07-16 05:22:00,67.0,50.0,29.22,SSW,205,1.0,-999.0,54,0.00,,,-99.99,,2013-07-16 12:22:00,
2013-07-16 05:32:00,67.0,50.0,29.22,SSW,205,1.0,-999.0,54,0.00,,,-99.99,,2013-07-16 12:32:00,
2013-07-16 05:43:00,67.0,50.0,29.22,SSW,205,1.0,-999.0,54,0.00,,,-99.99,,2013-07-16 12:43:00,
2013-07-16 06:11:00,69.0,50.0,29.24,West,276,1.0,-999.0,51,0.00,,,0.00,,2013-07-16 13:11:00,
2013-07-16 06:21:00,69.0,50.0,29.24,West,276,1.0,-999.0,51,0.00,,,0.00,,2013-07-16 13:21:00,
2013-07-16 06:32:00,69.0,50.0,29.24,West,276,1.0,-999.0,51,0.00,,,0.00,,2013-07-16 13:32:00,
2013-07-16 06:42:00,69.0,50.0,29.24,West,276,1.0,-999.0,51,0.00,,,0.00,,2013-07-16 13:42:00,
2013-07-16 07:21:00,70.0,47.0,29.25,WSW,247,2.0,-999.0,43,0.00,,,0.00,,2013-07-16 14:21:00,
2013-07-16 07:32:00,70.0,47.0,29.25,WSW,247,2.0,-999.0,43,0.00,,,0.00,,2013-07-16 14:32:00,
2013-07-16 07:42:00,70.0,47.0,29.25,WSW,247,2.0,-999.0,43,0.00,,,0.00,,2013-07-16 14:42:00,
2013-07-16 08:21:00,71.0,44.0,29.27,SSW,197,4.0,-999.0,39,0.00,,,0.00,,2013-07-16 15:21:00,
2013-07-16 08:32:00,71.0,44.0,29.27,SSW,197,4.0,-999.0,39,0.00,,,0.00,,2013-07-16 15:32:00,
2013-07-16 08:43:00,71.0,44.0,29.27,SSW,197,4.0,-999.0,39,0.00,,,0.00,,2013-07-16 15:43:00,
2013-07-16 09:11:00,74.0,45.0,29.29,SSW,212,4.0,-999.0,35,0.00,,,0.00,,2013-07-16 16:11:00,
2013-07-16 09:21:00,74.0,45.0,29.29,SSW,212,4.0,-999.0,35,0.00,,,0.00,,2013-07-16 16:21:00,
2013-07-16 09:32:00,74.0,45.0,29.29,SSW,212,4.0,-999.0,35,0.00,,,0.00,,2013-07-16 16:32:00,
2013-07-16 09:43:00,74.0,45.0,29.29,SSW,212,4.0,-999.0,35,0.00,,,0.00,,2013-07-16 16:43:00,
2013-07-16 10:12:00,81.0,44.0,29.29,NW,307,3.0,-999.0,27,0.00,,,-99.99,,2013-07-16 17:12:00,
2013-07-16 10:22:00,81.0,44.0,29.29,NW,307,3.0,-999.0,27,0.00,,,-99.99,,2013-07-16 17:22:00,
2013-07-16 10:32:00,81.0,44.0,29.29,NW,307,3.0,-999.0,27,0.00,,,-99.99,,2013-07-16 17:32:00,
2013-07-16 10:43:00,81.0,44.0,29.29,NW,307,3.0,-999.0,27,0.00,,,-99.99,,2013-07-16 17:43:00,
2013-07-16 11:11:00,84.0,43.0,29.30,West,278,4.0,-999.0,24,0.00,,,-99.99,,2013-07-16 18:11:00,
2013-07-16 11:22:00,84.0,43.0,29.30,West,278,4.0,-999.0,24,0.00,,,-99.99,,2013-07-16 18:22:00,
2013-07-16 11:32:00,84.0,43.0,29.30,West,278,4.0,-999.0,24,0.00,,,-99.99,,2013-07-16 18:32:00,
2013-07-16 11:43:00,84.0,43.0,29.30,West,278,4.0,-999.0,24,0.00,,,-99.99,,2013-07-16 18:43:00,
2013-07-16 12:11:00,89.0,46.0,29.29,SSW,201,4.0,-999.0,23,0.01,,,0.00,,2013-07-16 19:11:00,
2013-07-16 12:22:00,89.0,46.0,29.29,SSW,201,4.0,-999.0,23,0.01,,,0.00,,2013-07-16 19:22:00,
2013-07-16 12:32:00,89.0,46.0,29.29,SSW,201,4.0,-999.0,23,0.01,,,0.00,,2013-07-16 19:32:00,
2013-07-16 12:43:00,89.0,46.0,29.29,SSW,201,4.0,-999.0,23,0.01,,,0.00,,2013-07-16 19:43:00,
2013-07-16 13:11:00,90.0,46.0,29.29,WSW,249,6.0,-999.0,22,0.00,,,0.00,,2013-07-16 20:11:00,
2013-07-16 13:22:00,90.0,46.0,29.29,WSW,249,6.0,-999.0,22,0.00,,,0.00,,2013-07-16 20:22:00,
2013-07-16 13:32:00,90.0,46.0,29.29,WSW,249,6.0,-999.0,22,0.00,,,0.00,,2013-07-16 20:32:00,
2013-07-16 13:43:00,90.0,46.0,29.29,WSW,249,6.0,-999.0,22,0.00,,,0.00,,2013-07-16 20:43:00,
2013-07-16 14:22:00,92.0,43.0,29.27,SW,219,6.0,-999.0,18,0.00,,,0.00,,2013-07-16 21:22:00,
2013-07-16 14:32:00,92.0,43.0,29.27,SW,219,6.0,-999.0,18,0.00,,,0.00,,2013-07-16 21:32:00,
2013-07-16 14:43:00,92.0,43.0,29.27,SW,219,6.0,-999.0,18,0.00,,,0.00,,2013-07-16 21:43:00,
2013-07-16 16:22:00,95.0,40.0,29.25,WNW,297,6.0,-999.0,15,0.00,,,-99.99,,2013-07-16 23:22:00,
2013-07-16 16:32:00,95.0,40.0,29.25,WNW,297,6.0,-999.0,15,0.00,,,-99.99,,2013-07-16 23:32:00,
2013-07-16 16:42:00,95.0,40.0,29.25,WNW,297,6.0,-999.0,15,0.00,,,-99.99,,2013-07-16 23:42:00,
2013-07-16 17:11:00,94.0,41.0,29.25,WNW,287,7.0,-999.0,16,0.00,,,-99.99,,2013-07-17 00:11:00,
2013-07-16 17:22:00,94.0,41.0,29.25,WNW,287,7.0,-999.0,16,0.00,,,-99.99,,2013-07-17 00:22:00,
2013-07-16 17:33:00,94.0,41.0,29.25,WNW,287,7.0,-999.0,16,0.00,,,-99.99,,2013-07-17 00:33:00,
2013-07-16 17:42:00,94.0,41.0,29.25,WNW,287,7.0,-999.0,16,0.00,,,-99.99,,2013-07-17 00:42:00,
2013-07-16 18:22:00,95.0,40.0,29.23,West,273,5.0,-999.0,15,0.00,,,-99.99,,2013-07-17 01:22:00,
2013-07-16 18:32:00,95.0,40.0,29.23,West,273,5.0,-999.0,15,0.00,,,-99.99,,2013-07-17 01:32:00,
2013-07-16 18:42:00,95.0,40.0,29.23,West,273,5.0,-999.0,15,0.00,,,-99.99,,2013-07-17 01:42:00,
2013-07-16 19:11:00,94.0,43.0,29.24,West,277,4.0,-999.0,17,0.00,,,-99.99,,2013-07-17 02:11:00,
2013-07-16 19:22:00,94.0,43.0,29.24,West,277,4.0,-999.0,17,0.00,,,-99.99,,2013-07-17 02:22:00,
2013-07-16 19:32:00,94.0,43.0,29.24,West,277,4.0,-999.0,17,0.00,,,-99.99,,2013-07-17 02:32:00,
2013-07-16 19:43:00,94.0,43.0,29.24,West,277,4.0,-999.0,17,0.00,,,-99.99,,2013-07-17 02:43:00,
2013-07-16 20:22:00,91.0,41.0,29.25,SW,232,1.0,-999.0,18,0.00,,,0.00,,2013-07-17 03:22:00,
2013-07-16 20:32:00,91.0,41.0,29.25,SW,232,1.0,-999.0,18,0.00,,,0.00,,2013-07-17 03:32:00,
2013-07-16 20:43:00,91.0,41.0,29.25,SW,232,1.0,-999.0,18,0.00,,,0.00,,2013-07-17 03:43:00,
2013-07-16 23:11:00,82.0,46.0,29.30,WNW,289,2.0,-999.0,29,0.00,,,0.00,,2013-07-17 06:11:00,
2013-07-16 23:22:00,82.0,46.0,29.30,WNW,289,2.0,-999.0,29,0.00,,,0.00,,2013-07-17 06:22:00,
2013-07-16 23:32:00,82.0,46.0,29.30,WNW,289,2.0,-999.0,29,0.00,,,0.00,,2013-07-17 06:32:00,
2013-07-16 23:43:00,82.0,46.0,29.30,WNW,289,2.0,-999.0,29,0.00,,,0.00,,2013-07-17 06:43:00,